Time,TemperatureF,DewpointF,PressureIn,WindDirection,WindDirectionDegrees,WindSpeedMPH,WindSpeedGustMPH,Humidity,HourlyPrecipIn,Conditions,Clouds,dailyrainin,SoftwareType,DateUTC
2013-09-13 00:00:00,72.2,66.7,29.89,NE,54,0.0,0.0,83,0.00,,,0.20,Wunderground v.1.15,2013-09-13 04:00:00,
2013-09-13 00:05:00,72.4,66.9,29.89,NE,54,0.0,0.0,83,0.00,,,0.00,Wunderground v.1.15,2013-09-13 04:05:00,
2013-09-13 00:10:00,72.4,66.9,29.88,NE,54,0.0,0.0,83,0.00,,,0.00,Wunderground v.1.15,2013-09-13 04:10:00,
2013-09-13 00:15:00,72.4,66.9,29.88,NE,53,0.0,0.0,83,0.00,,,0.00,Wunderground v.1.15,2013-09-13 04:15:00,
2013-09-13 00:20:00,72.4,66.9,29.88,NE,54,0.0,0.0,83,0.00,,,0.00,Wunderground v.1.15,2013-09-13 04:20:00,
2013-09-13 00:25:00,72.4,66.9,29.88,NE,54,0.0,0.0,83,0.00,,,0.00,Wunderground v.1.15,2013-09-13 04:25:00,
2013-09-13 00:30:00,72.4,66.9,29.88,NE,53,0.0,0.0,83,0.00,,,0.00,Wunderground v.1.15,2013-09-13 04:30:00,
2013-09-13 00:35:00,72.3,66.8,29.88,NE,54,0.0,0.0,83,0.00,,,0.00,Wunderground v.1.15,2013-09-13 04:35:00,
2013-09-13 00:40:00,72.3,66.8,29.88,NE,54,0.0,0.0,83,0.00,,,0.00,Wunderground v.1.15,2013-09-13 04:40:00,
2013-09-13 00:45:00,72.2,66.7,29.88,NE,54,0.0,0.0,83,0.00,,,0.00,Wunderground v.1.15,2013-09-13 04:45:00,
2013-09-13 00:50:00,72.3,66.8,29.88,NE,53,0.0,0.0,83,0.00,,,0.00,Wunderground v.1.15,2013-09-13 04:50:00,
2013-09-13 00:55:00,72.2,66.7,29.88,NE,53,0.0,0.0,83,0.00,,,0.00,Wunderground v.1.15,2013-09-13 04:55:00,
2013-09-13 01:00:00,72.1,66.6,29.88,NE,53,0.0,0.0,83,0.00,,,0.00,Wunderground v.1.15,2013-09-13 05:00:00,
2013-09-13 01:05:00,71.9,66.5,29.88,NE,53,0.0,0.0,83,0.00,,,0.00,Wunderground v.1.15,2013-09-13 05:05:00,
2013-09-13 01:10:00,71.7,66.3,29.88,NE,54,0.0,0.0,83,0.00,,,0.00,Wunderground v.1.15,2013-09-13 05:10:00,
2013-09-13 01:15:00,71.6,66.2,29.88,NE,54,0.0,0.0,83,0.00,,,0.00,Wunderground v.1.15,2013-09-13 05:15:00,
2013-09-13 01:20:00,71.4,66.0,29.88,NE,54,0.0,0.0,83,0.00,,,0.00,Wunderground v.1.15,2013-09-13 05:20:00,
2013-09-13 01:30:00,71.2,65.8,29.88,NE,53,0.0,0.0,83,0.00,,,0.00,Wunderground v.1.15,2013-09-13 05:30:00,
2013-09-13 01:35:00,71.1,65.7,29.88,NE,53,0.0,0.0,83,0.00,,,0.00,Wunderground v.1.15,2013-09-13 05:35:00,
2013-09-13 01:40:00,71.0,65.6,29.88,NE,54,0.0,0.0,83,0.00,,,0.00,Wunderground v.1.15,2013-09-13 05:40:00,
2013-09-13 01:45:00,71.0,65.6,29.88,NE,53,0.0,0.0,83,0.00,,,0.00,Wunderground v.1.15,2013-09-13 05:45:00,
2013-09-13 01:50:00,70.8,65.4,29.87,NE,54,0.0,0.0,83,0.00,,,0.00,Wunderground v.1.15,2013-09-13 05:50:00,
2013-09-13 01:55:00,70.8,65.4,29.87,NE,53,0.0,0.0,83,0.00,,,0.00,Wunderground v.1.15,2013-09-13 05:55:00,
2013-09-13 02:00:00,70.8,65.4,29.87,NE,54,0.0,0.0,83,0.00,,,0.00,Wunderground v.1.15,2013-09-13 06:00:00,
2013-09-13 02:05:00,70.9,65.5,29.87,NE,54,0.0,0.0,83,0.00,,,0.00,Wunderground v.1.15,2013-09-13 06:05:00,
2013-09-13 02:10:00,71.1,65.7,29.87,NE,53,0.0,0.0,83,0.00,,,0.00,Wunderground v.1.15,2013-09-13 06:10:00,
2013-09-13 02:15:00,71.2,65.8,29.87,NE,54,0.0,0.0,83,0.00,,,0.00,Wunderground v.1.15,2013-09-13 06:15:00,
2013-09-13 02:20:00,71.2,65.8,29.87,NE,54,0.0,0.0,83,0.00,,,0.00,Wunderground v.1.15,2013-09-13 06:20:00,
2013-09-13 02:30:00,70.9,65.5,29.87,NE,54,0.0,0.0,83,0.00,,,0.00,Wunderground v.1.15,2013-09-13 06:30:00,
2013-09-13 02:40:00,70.8,65.4,29.87,NE,53,0.0,0.0,83,0.00,,,0.00,Wunderground v.1.15,2013-09-13 06:40:00,
2013-09-13 02:50:00,70.8,65.4,29.87,NE,54,0.0,0.0,83,0.00,,,0.00,Wunderground v.1.15,2013-09-13 06:50:00,
2013-09-13 02:55:00,70.8,65.4,29.87,NE,53,0.0,0.0,83,0.00,,,0.00,Wunderground v.1.15,2013-09-13 06:55:00,
2013-09-13 03:00:00,71.0,65.6,29.86,NE,54,0.0,0.0,83,0.00,,,0.00,Wunderground v.1.15,2013-09-13 07:00:00,
2013-09-13 03:05:00,71.1,65.7,29.86,NE,54,0.0,0.0,83,0.00,,,0.00,Wunderground v.1.15,2013-09-13 07:05:00,
2013-09-13 03:10:00,71.1,65.7,29.86,NE,54,0.0,0.0,83,0.00,,,0.00,Wunderground v.1.15,2013-09-13 07:10:00,
2013-09-13 03:15:00,71.2,65.8,29.86,NE,54,0.0,0.0,83,0.00,,,0.00,Wunderground v.1.15,2013-09-13 07:15:00,
2013-09-13 03:20:00,71.2,65.8,29.86,NE,53,0.0,0.0,83,0.00,,,0.00,Wunderground v.1.15,2013-09-13 07:20:00,
2013-09-13 03:25:00,71.2,65.8,29.86,NE,54,0.0,0.0,83,0.00,,,0.00,Wunderground v.1.15,2013-09-13 07:25:00,
2013-09-13 03:30:00,71.1,65.7,29.85,NE,53,0.0,0.0,83,0.00,,,0.00,Wunderground v.1.15,2013-09-13 07:30:00,
2013-09-13 03:35:00,71.1,65.7,29.85,NE,54,0.0,0.0,83,0.00,,,0.00,Wunderground v.1.15,2013-09-13 07:35:00,
2013-09-13 03:40:00,71.1,65.7,29.85,NE,54,0.0,0.0,83,0.00,,,0.00,Wunderground v.1.15,2013-09-13 07:40:00,
2013-09-13 03:45:00,71.3,65.9,29.85,NE,53,0.0,0.0,83,0.00,,,0.00,Wunderground v.1.15,2013-09-13 07:45:00,
2013-09-13 03:50:00,71.4,66.0,29.85,NE,54,0.0,0.0,83,0.00,,,0.00,Wunderground v.1.15,2013-09-13 07:50:00,
2013-09-13 03:55:00,71.4,66.0,29.85,NE,54,0.0,0.0,83,0.00,,,0.00,Wunderground v.1.15,2013-09-13 07:55:00,
2013-09-13 04:00:00,71.4,66.0,29.85,NE,53,0.0,0.0,83,0.00,,,0.00,Wunderground v.1.15,2013-09-13 08:00:00,
2013-09-13 04:05:00,71.4,66.0,29.85,NE,54,0.0,0.0,83,0.00,,,0.00,Wunderground v.1.15,2013-09-13 08:05:00,
2013-09-13 04:10:00,71.7,66.3,29.85,NE,54,0.0,0.0,83,0.00,,,0.00,Wunderground v.1.15,2013-09-13 08:10:00,
2013-09-13 04:20:00,71.9,66.5,29.84,NE,53,0.0,0.0,83,0.00,,,0.01,Wunderground v.1.15,2013-09-13 08:20:00,
2013-09-13 04:25:00,71.9,66.5,29.84,NE,53,0.0,0.0,83,0.00,,,0.01,Wunderground v.1.15,2013-09-13 08:25:00,
2013-09-13 04:30:00,71.9,66.5,29.85,NE,53,0.0,0.0,83,0.00,,,0.01,Wunderground v.1.15,2013-09-13 08:30:00,
2013-09-13 04:35:00,71.8,66.4,29.84,NE,54,0.0,0.0,83,0.00,,,0.01,Wunderground v.1.15,2013-09-13 08:35:00,
2013-09-13 04:40:00,71.7,66.3,29.84,NE,53,0.0,0.0,83,0.00,,,0.01,Wunderground v.1.15,2013-09-13 08:40:00,
2013-09-13 04:45:00,71.8,66.4,29.85,NE,53,0.0,0.0,83,0.00,,,0.01,Wunderground v.1.15,2013-09-13 08:45:00,
2013-09-13 04:50:00,71.8,66.4,29.85,NE,54,0.0,0.0,83,0.00,,,0.01,Wunderground v.1.15,2013-09-13 08:50:00,
2013-09-13 05:00:00,71.7,66.3,29.85,NE,54,0.0,0.0,83,0.00,,,0.01,Wunderground v.1.15,2013-09-13 09:00:00,
2013-09-13 05:05:00,71.7,66.3,29.85,NE,53,0.0,0.0,83,0.00,,,0.01,Wunderground v.1.15,2013-09-13 09:05:00,
2013-09-13 05:10:00,71.6,66.2,29.85,NE,54,0.0,0.0,83,0.00,,,0.01,Wunderground v.1.15,2013-09-13 09:10:00,
2013-09-13 05:15:00,71.5,66.1,29.85,NE,53,0.0,0.0,83,0.00,,,0.01,Wunderground v.1.15,2013-09-13 09:15:00,
2013-09-13 05:20:00,71.4,66.0,29.85,NE,54,0.0,0.0,83,0.00,,,0.01,Wunderground v.1.15,2013-09-13 09:20:00,
2013-09-13 05:25:00,71.3,65.9,29.84,NE,54,0.0,0.0,83,0.00,,,0.01,Wunderground v.1.15,2013-09-13 09:25:00,
2013-09-13 05:30:00,71.3,65.9,29.84,NE,53,0.0,0.0,83,0.00,,,0.01,Wunderground v.1.15,2013-09-13 09:30:00,
2013-09-13 05:40:00,71.0,65.6,29.84,NE,54,0.0,0.0,83,0.00,,,0.01,Wunderground v.1.15,2013-09-13 09:40:00,
2013-09-13 05:45:00,71.0,65.6,29.84,NE,54,0.0,0.0,83,0.00,,,0.01,Wunderground v.1.15,2013-09-13 09:45:00,
2013-09-13 05:50:00,70.9,65.5,29.85,NE,54,0.0,0.0,83,0.00,,,0.01,Wunderground v.1.15,2013-09-13 09:50:00,
2013-09-13 05:55:00,70.8,65.4,29.85,NE,54,0.0,0.0,83,0.00,,,0.01,Wunderground v.1.15,2013-09-13 09:55:00,
2013-09-13 06:00:00,70.7,65.3,29.85,NE,54,0.0,0.0,83,0.00,,,0.01,Wunderground v.1.15,2013-09-13 10:00:00,
2013-09-13 06:05:00,70.6,65.2,29.85,NE,54,0.0,0.0,83,0.00,,,0.01,Wunderground v.1.15,2013-09-13 10:05:00,
2013-09-13 06:10:00,70.6,65.2,29.85,NE,53,0.0,0.0,83,0.00,,,0.01,Wunderground v.1.15,2013-09-13 10:10:00,
2013-09-13 06:15:00,70.6,65.2,29.85,NE,54,0.0,0.0,83,0.00,,,0.01,Wunderground v.1.15,2013-09-13 10:15:00,
2013-09-13 06:20:00,70.6,65.2,29.85,NE,53,0.0,0.0,83,0.00,,,0.01,Wunderground v.1.15,2013-09-13 10:20:00,
2013-09-13 06:25:00,70.6,65.2,29.85,NE,54,0.0,0.0,83,0.00,,,0.01,Wunderground v.1.15,2013-09-13 10:25:00,
2013-09-13 06:30:00,70.5,65.1,29.85,NE,53,0.0,0.0,83,0.00,,,0.01,Wunderground v.1.15,2013-09-13 10:30:00,
2013-09-13 06:35:00,70.4,65.0,29.85,NE,54,0.0,0.0,83,0.00,,,0.01,Wunderground v.1.15,2013-09-13 10:35:00,
2013-09-13 06:40:00,70.4,65.0,29.85,NE,53,0.0,0.0,83,0.00,,,0.01,Wunderground v.1.15,2013-09-13 10:40:00,
2013-09-13 06:45:00,70.3,64.9,29.85,NE,54,0.0,0.0,83,0.00,,,0.01,Wunderground v.1.15,2013-09-13 10:45:00,
2013-09-13 06:50:00,70.3,64.9,29.85,NE,54,0.0,0.0,83,0.00,,,0.01,Wunderground v.1.15,2013-09-13 10:50:00,
2013-09-13 06:55:00,70.2,64.8,29.85,NE,54,0.0,0.0,83,0.00,,,0.01,Wunderground v.1.15,2013-09-13 10:55:00,
2013-09-13 07:00:00,70.2,64.8,29.85,NE,54,0.0,0.0,83,0.00,,,0.01,Wunderground v.1.15,2013-09-13 11:00:00,
2013-09-13 07:05:00,70.3,64.9,29.85,NE,54,0.0,0.0,83,0.00,,,0.01,Wunderground v.1.15,2013-09-13 11:05:00,
2013-09-13 07:10:00,70.4,65.0,29.85,NE,54,0.0,0.0,83,0.00,,,0.01,Wunderground v.1.15,2013-09-13 11:10:00,
2013-09-13 07:15:00,70.4,65.0,29.85,NE,54,0.0,0.0,83,0.00,,,0.01,Wunderground v.1.15,2013-09-13 11:15:00,
2013-09-13 07:20:00,70.5,65.1,29.85,NE,53,0.0,0.0,83,0.00,,,0.01,Wunderground v.1.15,2013-09-13 11:20:00,
2013-09-13 07:25:00,70.6,65.2,29.85,NE,54,0.0,0.0,83,0.00,,,0.01,Wunderground v.1.15,2013-09-13 11:25:00,
2013-09-13 07:30:00,70.7,65.3,29.85,NE,54,0.0,0.0,83,0.00,,,0.01,Wunderground v.1.15,2013-09-13 11:30:00,
2013-09-13 07:35:00,70.8,65.4,29.85,NE,54,0.0,0.0,83,0.00,,,0.01,Wunderground v.1.15,2013-09-13 11:35:00,
2013-09-13 07:40:00,71.0,65.6,29.86,NE,53,0.0,0.0,83,0.00,,,0.01,Wunderground v.1.15,2013-09-13 11:40:00,
2013-09-13 07:45:00,71.2,65.8,29.86,NE,54,0.0,0.0,83,0.00,,,0.01,Wunderground v.1.15,2013-09-13 11:45:00,
2013-09-13 07:50:00,71.5,66.1,29.86,NE,54,0.0,0.0,83,0.00,,,0.01,Wunderground v.1.15,2013-09-13 11:50:00,
2013-09-13 07:55:00,71.9,66.1,29.86,NE,53,0.0,0.0,82,0.00,,,0.01,Wunderground v.1.15,2013-09-13 11:55:00,
2013-09-13 08:00:00,72.4,66.6,29.86,NE,53,0.0,0.0,82,0.00,,,0.01,Wunderground v.1.15,2013-09-13 12:00:00,
2013-09-13 08:05:00,72.8,67.0,29.86,NE,53,0.0,0.0,82,0.00,,,0.01,Wunderground v.1.15,2013-09-13 12:05:00,
2013-09-13 08:10:00,73.2,67.4,29.86,NE,54,0.0,0.0,82,0.00,,,0.01,Wunderground v.1.15,2013-09-13 12:10:00,
2013-09-13 08:15:00,73.7,67.9,29.86,NE,54,0.0,0.0,82,0.00,,,0.01,Wunderground v.1.15,2013-09-13 12:15:00,
2013-09-13 08:20:00,74.2,68.3,29.86,NE,54,0.0,0.0,82,0.00,,,0.01,Wunderground v.1.15,2013-09-13 12:20:00,
2013-09-13 08:25:00,74.7,68.8,29.86,NE,54,0.0,0.0,82,0.00,,,0.01,Wunderground v.1.15,2013-09-13 12:25:00,
2013-09-13 08:30:00,75.1,69.2,29.86,NE,54,0.0,0.0,82,0.00,,,0.01,Wunderground v.1.15,2013-09-13 12:30:00,
2013-09-13 08:35:00,75.7,69.8,29.87,NE,54,0.0,0.0,82,0.00,,,0.01,Wunderground v.1.15,2013-09-13 12:35:00,
2013-09-13 08:40:00,76.4,70.5,29.87,NE,53,0.0,0.0,82,0.00,,,0.01,Wunderground v.1.15,2013-09-13 12:40:00,
2013-09-13 08:45:00,76.8,70.9,29.87,NE,53,0.0,0.0,82,0.00,,,0.01,Wunderground v.1.15,2013-09-13 12:45:00,
2013-09-13 08:50:00,77.3,71.0,29.87,NE,53,0.0,0.0,81,0.00,,,0.01,Wunderground v.1.15,2013-09-13 12:50:00,
2013-09-13 08:55:00,77.5,71.6,29.87,NE,53,0.0,0.0,82,0.00,,,0.01,Wunderground v.1.15,2013-09-13 12:55:00,
2013-09-13 09:00:00,77.9,72.0,29.87,NE,53,0.0,0.0,82,0.00,,,0.01,Wunderground v.1.15,2013-09-13 13:00:00,
2013-09-13 09:05:00,78.3,72.3,29.87,NE,54,0.0,0.0,82,0.00,,,0.01,Wunderground v.1.15,2013-09-13 13:05:00,
2013-09-13 09:10:00,78.6,72.6,29.87,NE,54,0.0,0.0,82,0.00,,,0.01,Wunderground v.1.15,2013-09-13 13:10:00,
2013-09-13 09:15:00,78.7,72.7,29.87,NE,53,0.0,0.0,82,0.00,,,0.01,Wunderground v.1.15,2013-09-13 13:15:00,
2013-09-13 09:20:00,78.9,72.9,29.87,NE,54,0.0,0.0,82,0.00,,,0.01,Wunderground v.1.15,2013-09-13 13:20:00,
2013-09-13 09:25:00,79.2,73.2,29.87,NE,53,0.0,0.0,82,0.00,,,0.01,Wunderground v.1.15,2013-09-13 13:25:00,
2013-09-13 09:30:00,79.1,73.1,29.87,NE,54,0.0,0.0,82,0.00,,,0.01,Wunderground v.1.15,2013-09-13 13:30:00,
2013-09-13 09:35:00,79.1,73.1,29.87,NE,53,0.0,0.0,82,0.00,,,0.01,Wunderground v.1.15,2013-09-13 13:35:00,
2013-09-13 09:40:00,79.4,73.4,29.88,NE,54,0.0,0.0,82,0.00,,,0.01,Wunderground v.1.15,2013-09-13 13:40:00,
2013-09-13 09:50:00,80.0,74.4,29.87,NE,54,0.0,0.0,83,0.00,,,0.01,Wunderground v.1.15,2013-09-13 13:50:00,
2013-09-13 09:55:00,80.2,74.6,29.87,NE,54,0.0,0.0,83,0.00,,,0.01,Wunderground v.1.15,2013-09-13 13:55:00,
2013-09-13 10:00:00,80.7,75.1,29.87,NE,54,0.0,0.0,83,0.00,,,0.01,Wunderground v.1.15,2013-09-13 14:00:00,
2013-09-13 10:05:00,81.4,75.4,29.87,NE,53,0.0,0.0,82,0.00,,,0.01,Wunderground v.1.15,2013-09-13 14:05:00,
2013-09-13 10:10:00,81.9,75.9,29.87,NE,54,0.0,0.0,82,0.00,,,0.01,Wunderground v.1.15,2013-09-13 14:10:00,
2013-09-13 10:15:00,82.5,76.4,29.86,NE,54,0.0,0.0,82,0.00,,,0.01,Wunderground v.1.15,2013-09-13 14:15:00,
2013-09-13 10:25:00,82.7,76.6,29.86,NE,53,0.0,0.0,82,0.00,,,0.01,Wunderground v.1.15,2013-09-13 14:25:00,
2013-09-13 10:30:00,83.2,77.1,29.86,NE,54,0.0,0.0,82,0.00,,,0.01,Wunderground v.1.15,2013-09-13 14:30:00,
2013-09-13 10:35:00,83.8,77.7,29.86,NE,54,0.0,0.0,82,0.00,,,0.01,Wunderground v.1.15,2013-09-13 14:35:00,
2013-09-13 10:40:00,84.2,77.7,29.87,NE,53,0.0,0.0,81,0.00,,,0.01,Wunderground v.1.15,2013-09-13 14:40:00,
2013-09-13 10:45:00,84.1,77.6,29.86,NE,54,0.0,0.0,81,0.00,,,0.01,Wunderground v.1.15,2013-09-13 14:45:00,
2013-09-13 10:50:00,83.7,77.2,29.87,NE,54,0.0,0.0,81,0.00,,,0.01,Wunderground v.1.15,2013-09-13 14:50:00,
2013-09-13 10:55:00,83.2,76.8,29.87,NE,53,0.0,0.0,81,0.00,,,0.01,Wunderground v.1.15,2013-09-13 14:55:00,
2013-09-13 11:00:00,83.2,76.8,29.87,NE,54,0.0,0.0,81,0.00,,,0.01,Wunderground v.1.15,2013-09-13 15:00:00,
2013-09-13 11:05:00,83.1,76.7,29.87,NE,54,0.0,0.0,81,0.00,,,0.01,Wunderground v.1.15,2013-09-13 15:05:00,
2013-09-13 11:10:00,83.4,77.0,29.87,NE,53,0.0,0.0,81,0.00,,,0.01,Wunderground v.1.15,2013-09-13 15:10:00,
2013-09-13 11:15:00,84.2,77.7,29.87,NE,54,0.0,0.0,81,0.00,,,0.01,Wunderground v.1.15,2013-09-13 15:15:00,
2013-09-13 11:20:00,84.2,77.4,29.87,NE,53,0.0,0.0,80,0.00,,,0.01,Wunderground v.1.15,2013-09-13 15:20:00,
2013-09-13 11:25:00,83.9,77.1,29.87,NE,53,0.0,0.0,80,0.00,,,0.01,Wunderground v.1.15,2013-09-13 15:25:00,
2013-09-13 11:30:00,84.3,77.5,29.87,NE,53,0.0,0.0,80,0.00,,,0.01,Wunderground v.1.15,2013-09-13 15:30:00,
2013-09-13 11:35:00,85.0,78.1,29.87,NE,54,0.0,0.0,80,0.00,,,0.01,Wunderground v.1.15,2013-09-13 15:35:00,
2013-09-13 11:40:00,85.4,78.5,29.87,NE,54,0.0,0.0,80,0.00,,,0.01,Wunderground v.1.15,2013-09-13 15:40:00,
2013-09-13 11:45:00,85.7,78.4,29.87,NE,53,0.0,0.0,79,0.00,,,0.01,Wunderground v.1.15,2013-09-13 15:45:00,
2013-09-13 11:50:00,85.8,78.5,29.87,NE,54,0.0,0.0,79,0.00,,,0.01,Wunderground v.1.15,2013-09-13 15:50:00,
2013-09-13 11:55:00,85.5,77.9,29.86,NE,54,0.0,0.0,78,0.00,,,0.01,Wunderground v.1.15,2013-09-13 15:55:00,
2013-09-13 12:00:00,85.3,78.0,29.87,NE,54,0.0,0.0,79,0.00,,,0.01,Wunderground v.1.15,2013-09-13 16:00:00,
2013-09-13 12:05:00,86.2,79.3,29.86,NE,53,0.0,0.0,80,0.00,,,0.01,Wunderground v.1.15,2013-09-13 16:05:00,
2013-09-13 12:10:00,87.0,79.7,29.86,NE,54,0.0,0.0,79,0.00,,,0.01,Wunderground v.1.15,2013-09-13 16:10:00,
2013-09-13 12:15:00,86.8,78.7,29.86,NE,54,0.0,0.0,77,0.00,,,0.01,Wunderground v.1.15,2013-09-13 16:15:00,
2013-09-13 12:25:00,85.2,77.9,29.86,NE,54,0.0,0.0,79,0.00,,,0.01,Wunderground v.1.15,2013-09-13 16:25:00,
2013-09-13 12:30:00,85.0,78.1,29.85,NE,54,0.0,0.0,80,0.00,,,0.01,Wunderground v.1.15,2013-09-13 16:30:00,
2013-09-13 12:35:00,85.0,78.1,29.85,NE,54,0.0,0.0,80,0.00,,,0.01,Wunderground v.1.15,2013-09-13 16:35:00,
2013-09-13 12:45:00,85.0,77.8,29.85,NE,54,0.0,0.0,79,0.00,,,0.01,Wunderground v.1.15,2013-09-13 16:45:00,
2013-09-13 12:50:00,85.3,78.0,29.84,NE,53,0.0,0.0,79,0.00,,,0.01,Wunderground v.1.15,2013-09-13 16:50:00,
2013-09-13 12:55:00,86.1,78.0,29.84,NE,54,0.0,0.0,77,0.00,,,0.01,Wunderground v.1.15,2013-09-13 16:55:00,
2013-09-13 13:00:00,86.4,77.9,29.84,NE,54,0.0,0.0,76,0.00,,,0.01,Wunderground v.1.15,2013-09-13 17:00:00,
2013-09-13 13:06:00,86.5,77.6,29.84,NE,54,0.0,3.0,75,0.00,,,0.01,Wunderground v.1.15,2013-09-13 17:06:00,
2013-09-13 13:10:00,86.7,78.2,29.84,NE,54,0.0,0.0,76,0.00,,,0.01,Wunderground v.1.15,2013-09-13 17:10:00,
2013-09-13 13:15:00,87.0,78.1,29.84,NE,54,1.0,1.0,75,0.00,,,0.01,Wunderground v.1.15,2013-09-13 17:15:00,
2013-09-13 13:20:00,87.3,78.4,29.84,NE,54,2.0,2.0,75,0.00,,,0.01,Wunderground v.1.15,2013-09-13 17:20:00,
2013-09-13 13:25:00,87.3,78.4,29.84,NE,53,1.0,2.0,75,0.00,,,0.01,Wunderground v.1.15,2013-09-13 17:25:00,
2013-09-13 13:30:00,87.2,78.7,29.83,NE,54,0.0,0.0,76,0.00,,,0.01,Wunderground v.1.15,2013-09-13 17:30:00,
2013-09-13 13:35:00,87.4,78.5,29.83,NE,53,0.0,0.0,75,0.00,,,0.01,Wunderground v.1.15,2013-09-13 17:35:00,
2013-09-13 13:40:00,88.0,79.1,29.83,NE,54,0.0,0.0,75,0.00,,,0.01,Wunderground v.1.15,2013-09-13 17:40:00,
2013-09-13 13:45:00,88.7,79.3,29.83,NE,54,0.0,0.0,74,0.00,,,0.01,Wunderground v.1.15,2013-09-13 17:45:00,
2013-09-13 13:50:00,88.6,79.2,29.83,NE,53,0.0,0.0,74,0.00,,,0.01,Wunderground v.1.15,2013-09-13 17:50:00,
2013-09-13 13:55:00,88.8,79.8,29.82,NE,54,0.0,0.0,75,0.00,,,0.01,Wunderground v.1.15,2013-09-13 17:55:00,
2013-09-13 14:00:00,89.4,80.0,29.82,NE,53,0.0,0.0,74,0.00,,,0.01,Wunderground v.1.15,2013-09-13 18:00:00,
2013-09-13 14:05:00,89.5,79.3,29.82,NE,54,0.0,0.0,72,0.00,,,0.01,Wunderground v.1.15,2013-09-13 18:05:00,
2013-09-13 14:10:00,89.0,79.2,29.82,NE,54,0.0,0.0,73,0.00,,,0.01,Wunderground v.1.15,2013-09-13 18:10:00,
2013-09-13 14:15:00,88.3,79.0,29.82,NE,54,0.0,0.0,74,0.00,,,0.01,Wunderground v.1.15,2013-09-13 18:15:00,
2013-09-13 14:20:00,88.2,78.9,29.81,NE,54,0.0,0.0,74,0.00,,,0.01,Wunderground v.1.15,2013-09-13 18:20:00,
2013-09-13 14:25:00,88.4,78.6,29.81,NE,53,0.0,1.0,73,0.00,,,0.01,Wunderground v.1.15,2013-09-13 18:25:00,
2013-09-13 14:30:00,88.6,78.4,29.81,NE,53,1.0,1.0,72,0.00,,,0.01,Wunderground v.1.15,2013-09-13 18:30:00,
2013-09-13 14:35:00,88.9,79.1,29.81,NE,53,1.0,1.0,73,0.00,,,0.01,Wunderground v.1.15,2013-09-13 18:35:00,
2013-09-13 14:40:00,89.2,79.0,29.81,NE,54,0.0,0.0,72,0.00,,,0.01,Wunderground v.1.15,2013-09-13 18:40:00,
2013-09-13 14:45:00,89.1,78.9,29.81,NE,54,0.0,0.0,72,0.00,,,0.01,Wunderground v.1.15,2013-09-13 18:45:00,
2013-09-13 14:50:00,89.2,78.6,29.80,NE,54,0.0,0.0,71,0.00,,,0.01,Wunderground v.1.15,2013-09-13 18:50:00,
2013-09-13 14:55:00,89.3,78.7,29.80,NE,54,0.0,0.0,71,0.00,,,0.01,Wunderground v.1.15,2013-09-13 18:55:00,
2013-09-13 15:00:00,89.6,79.8,29.80,NE,54,0.0,0.0,73,0.00,,,0.01,Wunderground v.1.15,2013-09-13 19:00:00,
2013-09-13 15:05:00,89.9,79.7,29.80,NE,53,0.0,4.0,72,0.00,,,0.01,Wunderground v.1.15,2013-09-13 19:05:00,
2013-09-13 15:10:00,89.5,78.4,29.79,NE,53,1.0,1.0,70,0.00,,,0.01,Wunderground v.1.15,2013-09-13 19:10:00,
2013-09-13 15:15:00,89.3,79.1,29.79,NE,53,1.0,1.0,72,0.00,,,0.01,Wunderground v.1.15,2013-09-13 19:15:00,
2013-09-13 15:20:00,88.8,77.7,29.79,NE,54,0.0,0.0,70,0.00,,,0.01,Wunderground v.1.15,2013-09-13 19:20:00,
2013-09-13 15:25:00,88.5,77.9,29.79,NE,54,0.0,0.0,71,0.00,,,0.01,Wunderground v.1.15,2013-09-13 19:25:00,
2013-09-13 15:30:00,88.4,77.4,29.78,NE,54,0.0,0.0,70,0.00,,,0.01,Wunderground v.1.15,2013-09-13 19:30:00,
2013-09-13 15:35:00,88.7,78.1,29.78,NE,54,0.0,0.0,71,0.00,,,0.01,Wunderground v.1.15,2013-09-13 19:35:00,
2013-09-13 15:40:00,88.8,77.7,29.78,NE,54,0.0,0.0,70,0.00,,,0.01,Wunderground v.1.15,2013-09-13 19:40:00,
2013-09-13 15:45:00,89.3,78.2,29.78,NE,54,1.0,3.0,70,0.00,,,0.01,Wunderground v.1.15,2013-09-13 19:45:00,
2013-09-13 15:50:00,89.5,78.0,29.77,NE,54,1.0,1.0,69,0.00,,,0.01,Wunderground v.1.15,2013-09-13 19:50:00,
2013-09-13 15:55:00,90.1,78.6,29.77,NE,53,0.0,1.0,69,0.00,,,0.01,Wunderground v.1.15,2013-09-13 19:55:00,
2013-09-13 16:00:00,90.6,78.6,29.77,NE,53,0.0,3.0,68,0.00,,,0.01,Wunderground v.1.15,2013-09-13 20:00:00,
2013-09-13 16:05:00,91.2,78.7,29.77,NE,54,1.0,3.0,67,0.00,,,0.01,Wunderground v.1.15,2013-09-13 20:05:00,
2013-09-13 16:10:00,91.1,78.2,29.77,NE,53,1.0,1.0,66,0.00,,,0.01,Wunderground v.1.15,2013-09-13 20:10:00,
2013-09-13 16:15:00,90.8,78.3,29.77,NE,54,0.0,1.0,67,0.00,,,0.01,Wunderground v.1.15,2013-09-13 20:15:00,
2013-09-13 16:20:00,91.0,78.5,29.77,NE,54,0.0,0.0,67,0.00,,,0.01,Wunderground v.1.15,2013-09-13 20:20:00,
2013-09-13 16:25:00,91.3,79.3,29.77,NE,53,0.0,0.0,68,0.00,,,0.01,Wunderground v.1.15,2013-09-13 20:25:00,
2013-09-13 16:35:00,92.4,79.4,29.77,NE,54,1.0,1.0,66,0.00,,,0.01,Wunderground v.1.15,2013-09-13 20:35:00,
2013-09-13 16:40:00,92.4,78.9,29.77,NE,53,1.0,1.0,65,0.00,,,0.01,Wunderground v.1.15,2013-09-13 20:40:00,
2013-09-13 16:45:00,92.0,78.1,29.77,NE,54,1.0,1.0,64,0.00,,,0.01,Wunderground v.1.15,2013-09-13 20:45:00,
2013-09-13 16:50:00,91.8,78.4,29.76,NE,54,0.0,2.0,65,0.00,,,0.01,Wunderground v.1.15,2013-09-13 20:50:00,
2013-09-13 16:55:00,91.4,78.0,29.76,NE,53,0.0,2.0,65,0.00,,,0.01,Wunderground v.1.15,2013-09-13 20:55:00,
2013-09-13 17:05:00,91.6,79.1,29.77,NE,54,0.0,0.0,67,0.00,,,0.01,Wunderground v.1.15,2013-09-13 21:05:00,
2013-09-13 17:10:00,91.4,78.9,29.77,NE,54,0.0,0.0,67,0.00,,,0.01,Wunderground v.1.15,2013-09-13 21:10:00,
2013-09-13 17:15:00,91.0,78.1,29.76,NE,54,0.0,1.0,66,0.00,,,0.01,Wunderground v.1.15,2013-09-13 21:15:00,
2013-09-13 17:20:00,90.8,77.9,29.77,NE,53,0.0,0.0,66,0.00,,,0.01,Wunderground v.1.15,2013-09-13 21:20:00,
2013-09-13 17:25:00,90.4,76.6,29.77,NE,54,0.0,0.0,64,0.00,,,0.01,Wunderground v.1.15,2013-09-13 21:25:00,
2013-09-13 17:30:00,89.7,77.3,29.77,NE,54,0.0,0.0,67,0.00,,,0.01,Wunderground v.1.15,2013-09-13 21:30:00,
2013-09-13 17:35:00,89.1,77.6,29.77,NE,54,0.0,0.0,69,0.00,,,0.01,Wunderground v.1.15,2013-09-13 21:35:00,
2013-09-13 17:40:00,88.6,78.0,29.77,NE,54,0.0,0.0,71,0.00,,,0.01,Wunderground v.1.15,2013-09-13 21:40:00,
2013-09-13 17:45:00,87.8,77.6,29.77,NE,53,0.0,0.0,72,0.00,,,0.01,Wunderground v.1.15,2013-09-13 21:45:00,
2013-09-13 17:50:00,87.4,78.1,29.77,NE,54,0.0,0.0,74,0.00,,,0.01,Wunderground v.1.15,2013-09-13 21:50:00,
2013-09-13 17:55:00,86.9,78.0,29.77,NE,53,0.0,0.0,75,0.00,,,0.01,Wunderground v.1.15,2013-09-13 21:55:00,
2013-09-13 18:00:00,86.5,77.6,29.77,NE,53,0.0,0.0,75,0.00,,,0.01,Wunderground v.1.15,2013-09-13 22:00:00,
2013-09-13 18:05:00,86.0,77.5,29.77,NE,54,0.0,0.0,76,0.00,,,0.01,Wunderground v.1.15,2013-09-13 22:05:00,
2013-09-13 18:10:00,85.5,77.1,29.77,NE,54,0.0,0.0,76,0.00,,,0.01,Wunderground v.1.15,2013-09-13 22:10:00,
2013-09-13 18:15:00,85.1,77.1,29.77,NE,54,0.0,0.0,77,0.00,,,0.01,Wunderground v.1.15,2013-09-13 22:15:00,
2013-09-13 18:20:00,84.8,76.8,29.77,NE,54,0.0,0.0,77,0.00,,,0.01,Wunderground v.1.15,2013-09-13 22:20:00,
2013-09-13 18:25:00,84.6,77.0,29.77,NE,53,0.0,0.0,78,0.00,,,0.01,Wunderground v.1.15,2013-09-13 22:25:00,
2013-09-13 18:30:00,84.2,76.2,29.77,NE,54,0.0,0.0,77,0.00,,,0.01,Wunderground v.1.15,2013-09-13 22:30:00,
2013-09-13 18:35:00,83.6,76.0,29.77,NE,53,0.0,0.0,78,0.00,,,0.01,Wunderground v.1.15,2013-09-13 22:35:00,
2013-09-13 18:40:00,83.2,75.6,29.77,NE,53,0.0,0.0,78,0.00,,,0.01,Wunderground v.1.15,2013-09-13 22:40:00,
2013-09-13 18:45:00,82.9,75.3,29.77,NE,54,0.0,0.0,78,0.00,,,0.01,Wunderground v.1.15,2013-09-13 22:45:00,
2013-09-13 18:50:00,82.8,75.6,29.77,NE,53,0.0,0.0,79,0.00,,,0.01,Wunderground v.1.15,2013-09-13 22:50:00,
2013-09-13 18:55:00,82.6,75.4,29.77,NE,54,0.0,0.0,79,0.00,,,0.01,Wunderground v.1.15,2013-09-13 22:55:00,
2013-09-13 19:00:00,82.4,75.2,29.77,NE,53,0.0,0.0,79,0.00,,,0.01,Wunderground v.1.15,2013-09-13 23:00:00,
2013-09-13 19:05:00,82.2,75.0,29.78,NE,53,0.0,0.0,79,0.00,,,0.01,Wunderground v.1.15,2013-09-13 23:05:00,
2013-09-13 19:10:00,82.1,74.9,29.78,NE,53,0.0,0.0,79,0.00,,,0.01,Wunderground v.1.15,2013-09-13 23:10:00,
2013-09-13 19:15:00,82.0,74.8,29.78,NE,54,0.0,0.0,79,0.00,,,0.01,Wunderground v.1.15,2013-09-13 23:15:00,
2013-09-13 19:20:00,81.9,75.1,29.78,NE,53,0.0,0.0,80,0.00,,,0.01,Wunderground v.1.15,2013-09-13 23:20:00,
2013-09-13 19:25:00,81.7,74.9,29.78,NE,54,0.0,0.0,80,0.00,,,0.01,Wunderground v.1.15,2013-09-13 23:25:00,
2013-09-13 19:30:00,81.5,74.7,29.78,NE,54,0.0,0.0,80,0.00,,,0.01,Wunderground v.1.15,2013-09-13 23:30:00,
2013-09-13 19:35:00,81.2,74.4,29.78,NE,54,0.0,0.0,80,0.00,,,0.01,Wunderground v.1.15,2013-09-13 23:35:00,
2013-09-13 19:40:00,81.0,74.2,29.78,NE,53,0.0,0.0,80,0.00,,,0.01,Wunderground v.1.15,2013-09-13 23:40:00,
2013-09-13 19:45:00,80.8,74.0,29.78,NE,53,0.0,0.0,80,0.00,,,0.01,Wunderground v.1.15,2013-09-13 23:45:00,
2013-09-13 19:50:00,80.6,73.9,29.79,NE,53,0.0,0.0,80,0.00,,,0.01,Wunderground v.1.15,2013-09-13 23:50:00,
2013-09-13 19:55:00,80.3,73.6,29.79,NE,53,0.0,0.0,80,0.00,,,0.01,Wunderground v.1.15,2013-09-13 23:55:00,
2013-09-13 20:05:00,79.7,73.3,29.79,NE,53,0.0,0.0,81,0.00,,,0.01,Wunderground v.1.15,2013-09-14 00:05:00,
2013-09-13 20:10:00,79.4,73.1,29.79,NE,54,0.0,0.0,81,0.00,,,0.01,Wunderground v.1.15,2013-09-14 00:10:00,
2013-09-13 20:15:00,79.1,72.8,29.79,NE,53,0.0,0.0,81,0.00,,,0.01,Wunderground v.1.15,2013-09-14 00:15:00,
2013-09-13 20:20:00,78.8,72.5,29.80,NE,54,0.0,0.0,81,0.00,,,0.01,Wunderground v.1.15,2013-09-14 00:20:00,
2013-09-13 20:25:00,78.7,72.4,29.80,NE,53,0.0,0.0,81,0.00,,,0.01,Wunderground v.1.15,2013-09-14 00:25:00,
2013-09-13 20:30:00,78.5,72.2,29.80,NE,54,0.0,0.0,81,0.00,,,0.01,Wunderground v.1.15,2013-09-14 00:30:00,
2013-09-13 20:35:00,78.2,71.9,29.80,NE,54,0.0,0.0,81,0.00,,,0.01,Wunderground v.1.15,2013-09-14 00:35:00,
2013-09-13 20:40:00,78.0,72.1,29.80,NE,53,0.0,0.0,82,0.00,,,0.01,Wunderground v.1.15,2013-09-14 00:40:00,
2013-09-13 20:45:00,77.8,71.9,29.80,NE,54,0.0,0.0,82,0.00,,,0.01,Wunderground v.1.15,2013-09-14 00:45:00,
2013-09-13 20:50:00,77.6,71.7,29.81,NE,54,0.0,0.0,82,0.00,,,0.01,Wunderground v.1.15,2013-09-14 00:50:00,
2013-09-13 20:55:00,77.4,71.5,29.81,NE,53,0.0,0.0,82,0.00,,,0.01,Wunderground v.1.15,2013-09-14 00:55:00,
2013-09-13 21:00:00,77.2,71.3,29.81,NE,54,0.0,0.0,82,0.00,,,0.01,Wunderground v.1.15,2013-09-14 01:00:00,
2013-09-13 21:05:00,77.1,71.2,29.81,NE,54,0.0,0.0,82,0.00,,,0.01,Wunderground v.1.15,2013-09-14 01:05:00,
2013-09-13 21:10:00,76.9,71.0,29.81,NE,54,0.0,0.0,82,0.00,,,0.01,Wunderground v.1.15,2013-09-14 01:10:00,
2013-09-13 21:15:00,76.8,70.9,29.81,NE,54,0.0,0.0,82,0.00,,,0.01,Wunderground v.1.15,2013-09-14 01:15:00,
2013-09-13 21:20:00,76.6,70.7,29.81,NE,54,0.0,0.0,82,0.00,,,0.01,Wunderground v.1.15,2013-09-14 01:20:00,
2013-09-13 21:25:00,76.5,70.6,29.81,NE,53,0.0,0.0,82,0.00,,,0.01,Wunderground v.1.15,2013-09-14 01:25:00,
2013-09-13 21:30:00,76.3,70.4,29.82,NE,54,0.0,0.0,82,0.00,,,0.01,Wunderground v.1.15,2013-09-14 01:30:00,
2013-09-13 21:35:00,76.2,70.3,29.82,NE,53,0.0,0.0,82,0.00,,,0.01,Wunderground v.1.15,2013-09-14 01:35:00,
2013-09-13 21:40:00,76.0,70.1,29.82,NE,53,0.0,0.0,82,0.00,,,0.01,Wunderground v.1.15,2013-09-14 01:40:00,
2013-09-13 21:45:00,75.8,69.9,29.82,NE,54,0.0,0.0,82,0.00,,,0.01,Wunderground v.1.15,2013-09-14 01:45:00,
2013-09-13 21:55:00,75.5,70.0,29.82,NE,54,0.0,0.0,83,0.00,,,0.01,Wunderground v.1.15,2013-09-14 01:55:00,
2013-09-13 22:00:00,75.3,69.4,29.82,NE,53,0.0,0.0,82,0.00,,,0.01,Wunderground v.1.15,2013-09-14 02:00:00,
2013-09-13 22:05:00,75.2,69.7,29.82,NE,54,0.0,0.0,83,0.00,,,0.01,Wunderground v.1.15,2013-09-14 02:05:00,
2013-09-13 22:15:00,75.0,69.5,29.82,NE,53,0.0,0.0,83,0.00,,,0.01,Wunderground v.1.15,2013-09-14 02:15:00,
2013-09-13 22:20:00,74.9,69.4,29.83,NE,53,0.0,0.0,83,0.00,,,0.01,Wunderground v.1.15,2013-09-14 02:20:00,
2013-09-13 22:25:00,74.8,69.3,29.83,NE,54,0.0,0.0,83,0.00,,,0.01,Wunderground v.1.15,2013-09-14 02:25:00,
2013-09-13 22:30:00,74.8,69.3,29.83,NE,53,0.0,0.0,83,0.00,,,0.01,Wunderground v.1.15,2013-09-14 02:30:00,
2013-09-13 22:35:00,74.7,69.2,29.83,NE,53,0.0,0.0,83,0.00,,,0.01,Wunderground v.1.15,2013-09-14 02:35:00,
2013-09-13 22:45:00,74.6,69.1,29.83,NE,54,0.0,0.0,83,0.00,,,0.01,Wunderground v.1.15,2013-09-14 02:45:00,
2013-09-13 22:50:00,74.5,69.0,29.83,NE,53,0.0,0.0,83,0.00,,,0.01,Wunderground v.1.15,2013-09-14 02:50:00,
2013-09-13 22:55:00,74.5,69.0,29.83,NE,54,0.0,0.0,83,0.00,,,0.01,Wunderground v.1.15,2013-09-14 02:55:00,
2013-09-13 23:00:00,74.4,68.9,29.83,NE,54,0.0,0.0,83,0.00,,,0.01,Wunderground v.1.15,2013-09-14 03:00:00,
2013-09-13 23:05:00,74.4,68.9,29.83,NE,53,0.0,0.0,83,0.00,,,0.01,Wunderground v.1.15,2013-09-14 03:05:00,
2013-09-13 23:10:00,74.4,68.9,29.83,NE,53,0.0,0.0,83,0.00,,,0.01,Wunderground v.1.15,2013-09-14 03:10:00,
2013-09-13 23:15:00,74.8,69.3,29.83,NE,53,0.0,0.0,83,0.00,,,0.01,Wunderground v.1.15,2013-09-14 03:15:00,
2013-09-13 23:25:00,75.3,69.8,29.83,NE,53,0.0,0.0,83,0.00,,,0.01,Wunderground v.1.15,2013-09-14 03:25:00,
2013-09-13 23:30:00,75.4,69.9,29.83,NE,54,0.0,0.0,83,0.00,,,0.01,Wunderground v.1.15,2013-09-14 03:30:00,
2013-09-13 23:35:00,75.3,69.8,29.83,NE,53,0.0,0.0,83,0.00,,,0.01,Wunderground v.1.15,2013-09-14 03:35:00,
2013-09-13 23:40:00,75.2,69.7,29.83,NE,53,0.0,0.0,83,0.00,,,0.01,Wunderground v.1.15,2013-09-14 03:40:00,
2013-09-13 23:45:00,75.1,69.6,29.82,NE,53,0.0,0.0,83,0.00,,,0.01,Wunderground v.1.15,2013-09-14 03:45:00,
2013-09-13 23:50:00,74.8,69.3,29.82,NE,54,0.0,0.0,83,0.00,,,0.01,Wunderground v.1.15,2013-09-14 03:50:00,
2013-09-13 23:55:00,74.7,69.2,29.83,NE,53,0.0,0.0,83,0.00,,,0.01,Wunderground v.1.15,2013-09-14 03:55:00,